Weather in Vashkovcy

Ukraine / Chernovtci District     48°22′50″N   25°29′57″E
temp.,
°C
wind,
m/s
gust,
m/s
humid.,
%
clouds,
%
prec.,
mm/h
press.,
hPa
HPBL,
m
1 march, mon
mon123:00+3wnw71481100 0.1 1028933
02:00+2nw71296100 3.5 1028650
05:00+2nw5897100 1.8 1028413
08:00+2nnw5997100 2.1 1030521
11:00+3n478695 0.1 1032662
14:00+5nnw467495 0.3 1032840
17:00+4nw588193 0.1 1033561
20:00+3wnw368897 0.1 1035278
2 march, tue
tue223:00+1wnw359185 0.0 1035149
02:00+1w348868 0.0 103696
05:000w35831 0.0 1034115
08:00+1w36750 0.0 1034218
11:00+6wnw59550 0.0 1032513
14:00+10nw611500 0.0 1030802
17:00+9wnw613601 0.0 1028603
20:00+5nw514760 0.0 1030435
3 march, wed
wed323:00+5nw717720 0.0 1031540
02:00+3nw614800 0.0 1032371
05:00+2nw411880 0.0 1032280
08:00+1wnw38910 0.0 1032259
11:00+6nw357828 0.0 1032578
14:00+6nnw347563 0.0 1030626
17:00+6nne127459 0.0 1028371
20:00+4se228629 0.0 102922
4 march, thu
thu423:00+3se23910 0.0 102733
02:00+2sse22890 0.0 102523
05:00+1ssw11800 0.0 102222
08:00+2wsw11712 0.0 102123
11:00+8wnw23520 0.0 1018302
14:00+12wnw464317 0.0 10161324
17:00+11wnw35534 0.0 1014265
20:00+7wsw23672 0.0 101437
5 march, fri
fri523:00+4sw237524 0.0 101436
02:00+4ssw227459 0.0 101322
05:00+4s1272100 0.0 101122
08:00+6se2269100 0.0 101125
11:00+9ssw3757100 0.0 1009433
14:00+11w4847100 0.0 10081452
17:00+9wnw5106497 0.0 10091123
20:00+6nw8118499 1.3 1012844